Regional Weather Roundup
Issued by NWS

Home | Current Version | Previous Version | Graphics & Text | Print | Product List | Glossary On
Versions: 1 2 3 4 5 6 7 8 9 10 11 12 13 14 15 16 17 18 19 20 21 22 23 24 25 26 27 28 29 30 31 32 33 34 35 36 37 38 39 40 41 42 43 44 45 46 47 48 49 50
389
ASUS44 KLIX 222001
RWRLA
LOUISIANA WEATHER ROUNDUP
NATIONAL WEATHER SERVICE NEW ORLEANS LA
300 PM CDT WED OCT 22 2014

NOTE: "FAIR" INDICATES FEW OR NO CLOUDS BELOW 12,000 FEET WITH NO
      SIGNIFICANT WEATHER AND/OR OBSTRUCTIONS TO VISIBILITY.
      SKY/WX - SKY CONDITION AND SIGNIFICANT WEATHER.
      TMP - AIR TEMPERATURE.    DP   - DEWPOINT TEMPERATURE.
      RH  - RELATIVE HUMIDITY.  PRES - PRESSURE.
      HX  - HEAT INDEX.         WCI  - WIND CHILL INDEX.

*  THESE STATIONS ARE NOT NWS OR FAA STATIONS AND ARE NOT UNDER
   NWS QUALITY CONTROL.

LAZ040-048-061>063-065-066-069-222100-
SOUTHEAST LOUISIANA

CITY           SKY/WX    TMP DP  RH WIND       PRES   REMARKS
N.O. AUDUBON   NOT AVBL
N.O. INTL ARPT SUNNY     78  55  44 N9        30.04S
N.O. LAKEFRONT SUNNY     79  55  43 N6        30.04F
N.O. DOWNTOWN* FAIR      79  52  38 NE10      30.04S
SLIDELL        SUNNY     80  51  36 NE8       30.03F
BATON ROUGE    SUNNY     80  51  36 N8        30.05F
BOOTHVILLE     SUNNY     76  60  57 NE9G18    30.02F
BELLE CHASSE   SUNNY     78  53  41 E13       30.03S
BOGALUSA*        N/A     81  46  29 NE7       30.06F
NEW ROADS*     FAIR      79  52  38 N5        30.06S
GONZALES*      FAIR      79  56  44 CALM      30.03F
HAMMOND*       NOT AVBL
HOUMA*         NOT AVBL
PORT FOURCHON* CLEAR     77  59  53 NE17      30.05S

$$

LAZ041-044-053-054-222100-
SOUTHWEST LOUISIANA

CITY           SKY/WX    TMP DP  RH WIND       PRES   REMARKS
LAKE CHARLES   SUNNY     80  57  45 NE10      30.04F
LAFAYETTE      SUNNY     80  57  45 N12       30.04F
PATTERSON      SUNNY     81  57  44 NE12      30.05F
SALT POINT       N/A     82  57  42 E6        30.01F
NEW IBERIA     SUNNY     82  56  40 NE9       30.04F
CHENAULT AIRPK SUNNY     81  55  41 E7        30.05F

$$

LAZ027-028-222100-
CENTRAL LOUISIANA

CITY           SKY/WX    TMP DP  RH WIND       PRES   REMARKS
FORT POLK      SUNNY     77  56  47 N9        30.07F
ALEXANDRIA INT SUNNY     79  50  36 NE13      30.07F
ALEXANDRIA     SUNNY     78  52  40 VRB7      30.09F

$$

LAZ001-002-222100-
NORTHWEST LOUISIANA

CITY           SKY/WX    TMP DP  RH WIND       PRES   REMARKS
SHREVEPORT     SUNNY     79  50  36 VRB7      30.10F
BARKSDALE AFB  SUNNY     78  47  33 E8        30.11F
DTN SHREVEPORT SUNNY     76  48  37 NE8       30.11F

$$

LAZ014-016-222100-
NORTHEAST LOUISIANA

CITY           SKY/WX    TMP DP  RH WIND       PRES   REMARKS
MONROE         SUNNY     76  50  40 NE14      30.13F
TALLULAH       SUNNY     76  50  40 N12       30.11F

$$




USA.gov is the U.S. government's official web portal to all federal, state and local government web resources and services.